XNO150 EGKK-EDDL

Flight info

Callsign XNO150
Flight time 0h 55m
Altitude 33000
Route DVR L9 KONAN DCT KOK UL607 SPI Y862 KENUM M170 NVO T857 BIKMU BIKMU1A
Aircraft A320/M-SDE3FGHIRWY/LB1

Departure

Time 2026-05-05 17:26
Airport London Gatwick Airport (EGKK)

Arrival

Time 2026-05-05 18:22
Airport Düsseldorf Airport (EDDL)
Time Latitude Longitude Altitude Speed Heading
2026-05-05 16:54 51.15759 -0.16709 205 ft 0 kts 346°
2026-05-05 17:12 51.15751 -0.16706 205 ft 4 kts 344°
2026-05-05 17:12 51.15726 -0.16692 215 ft 4 kts 332°
2026-05-05 17:12 51.15705 -0.16667 215 ft 4 kts 301°
2026-05-05 17:13 51.15700 -0.16639 213 ft 1 kts 258°
2026-05-05 17:13 51.15701 -0.16633 214 ft 0 kts 258°
2026-05-05 17:16 51.15700 -0.16636 214 ft 1 kts 258°
2026-05-05 17:16 51.15697 -0.16660 214 ft 4 kts 257°
2026-05-05 17:16 51.15689 -0.16715 214 ft 7 kts 257°
2026-05-05 17:16 51.15675 -0.16814 213 ft 11 kts 257°
2026-05-05 17:17 51.15655 -0.16962 210 ft 16 kts 256°
2026-05-05 17:17 51.15629 -0.17148 214 ft 18 kts 257°
2026-05-05 17:17 51.15598 -0.17349 208 ft 17 kts 256°
2026-05-05 17:17 51.15545 -0.17487 209 ft 15 kts 242°
2026-05-05 17:18 51.15518 -0.17666 216 ft 19 kts 258°
2026-05-05 17:18 51.15490 -0.17880 205 ft 21 kts 257°
2026-05-05 17:18 51.15465 -0.18053 208 ft 9 kts 259°
2026-05-05 17:18 51.15459 -0.18102 211 ft 5 kts 258°
2026-05-05 17:19 51.15448 -0.18182 214 ft 9 kts 257°
2026-05-05 17:19 51.15443 -0.18210 213 ft 2 kts 257°
2026-05-05 17:19 51.15415 -0.18272 205 ft 12 kts 208°
2026-05-05 17:19 51.15316 -0.18253 207 ft 16 kts 166°
2026-05-05 17:20 51.15212 -0.18233 205 ft 15 kts 195°
2026-05-05 17:20 51.15179 -0.18387 205 ft 16 kts 258°
2026-05-05 17:20 51.15148 -0.18613 205 ft 26 kts 258°
2026-05-05 17:20 51.15107 -0.18908 207 ft 28 kts 258°
2026-05-05 17:21 51.15065 -0.19214 205 ft 30 kts 258°
2026-05-05 17:21 51.15026 -0.19501 211 ft 26 kts 257°
2026-05-05 17:21 51.14984 -0.19782 215 ft 26 kts 256°
2026-05-05 17:22 51.14900 -0.20396 205 ft 27 kts 258°
2026-05-05 17:22 51.14863 -0.20669 205 ft 26 kts 258°
2026-05-05 17:22 51.14825 -0.20956 213 ft 27 kts 258°
2026-05-05 17:22 51.14786 -0.21180 212 ft 15 kts 250°
2026-05-05 17:23 51.14760 -0.21354 205 ft 17 kts 256°
2026-05-05 17:23 51.14677 -0.21384 209 ft 14 kts 147°
2026-05-05 17:23 51.14616 -0.21330 208 ft 7 kts 165°
2026-05-05 17:23 51.14612 -0.21328 205 ft 0 kts 166°
2026-05-05 17:24 51.14611 -0.21328 205 ft 0 kts 166°
2026-05-05 17:24 51.14587 -0.21318 214 ft 7 kts 165°
2026-05-05 17:24 51.14524 -0.21232 212 ft 15 kts 112°
2026-05-05 17:25 51.14523 -0.21148 206 ft 0 kts 78°
2026-05-05 17:25 51.14524 -0.21142 206 ft 8 kts 77°
2026-05-05 17:25 51.14637 -0.20322 210 ft 99 kts 77°
2026-05-05 17:25 51.14822 -0.18984 210 ft 147 kts 78°
2026-05-05 17:26 51.15054 -0.17263 516 ft 167 kts 78°
2026-05-05 17:26 51.15300 -0.15373 1109 ft 175 kts 77°
2026-05-05 17:26 51.15555 -0.13517 1907 ft 172 kts 76°
2026-05-05 17:26 51.15829 -0.11554 2373 ft 190 kts 76°
2026-05-05 17:27 51.16130 -0.09418 2734 ft 208 kts 76°
2026-05-05 17:27 51.16463 -0.07028 3104 ft 233 kts 76°
2026-05-05 17:27 51.16821 -0.04388 3610 ft 252 kts 78°
2026-05-05 17:27 51.16881 -0.01543 4425 ft 261 kts 89°
2026-05-05 17:28 51.16830 0.01380 5348 ft 267 kts 89°
2026-05-05 17:28 51.16773 0.04379 5926 ft 273 kts 89°
2026-05-05 17:28 51.16712 0.07371 6144 ft 276 kts 89°
2026-05-05 17:28 51.16651 0.10433 7022 ft 276 kts 89°
2026-05-05 17:29 51.16590 0.13506 7898 ft 279 kts 90°
2026-05-05 17:29 51.16636 0.16612 8722 ft 282 kts 82°
2026-05-05 17:29 51.16837 0.19741 9540 ft 286 kts 83°
2026-05-05 17:29 51.17076 0.22909 10278 ft 293 kts 82°
2026-05-05 17:30 51.17350 0.26256 10528 ft 316 kts 82°
2026-05-05 17:30 51.17643 0.29822 10929 ft 330 kts 81°
2026-05-05 17:30 51.17949 0.33475 11595 ft 334 kts 81°
2026-05-05 17:30 51.18266 0.37153 12321 ft 336 kts 82°
2026-05-05 17:31 51.18588 0.40850 13072 ft 338 kts 81°
2026-05-05 17:31 51.18920 0.44577 13769 ft 341 kts 82°
2026-05-05 17:31 51.19259 0.48323 14421 ft 343 kts 81°
2026-05-05 17:31 51.19592 0.52099 15028 ft 346 kts 81°
2026-05-05 17:32 51.19926 0.55921 15579 ft 350 kts 81°
2026-05-05 17:32 51.20258 0.59779 16157 ft 352 kts 81°
2026-05-05 17:32 51.20578 0.63669 16729 ft 356 kts 82°
2026-05-05 17:32 51.20574 0.67632 17249 ft 361 kts 92°
2026-05-05 17:33 51.20390 0.71591 17801 ft 364 kts 93°
2026-05-05 17:33 51.20195 0.75633 18348 ft 367 kts 92°
2026-05-05 17:33 51.19996 0.79721 18811 ft 371 kts 93°
2026-05-05 17:33 51.19793 0.83840 19304 ft 374 kts 94°
2026-05-05 17:34 51.19588 0.88002 19809 ft 377 kts 94°
2026-05-05 17:34 51.19382 0.92187 20301 ft 380 kts 94°
2026-05-05 17:34 51.19172 0.96409 20756 ft 384 kts 94°
2026-05-05 17:34 51.18960 1.00669 21194 ft 388 kts 94°
2026-05-05 17:35 51.18743 1.04974 21633 ft 391 kts 95°
2026-05-05 17:35 51.18521 1.09326 22060 ft 395 kts 95°
2026-05-05 17:35 51.18301 1.13659 22485 ft 399 kts 95°
2026-05-05 17:35 51.18074 1.18088 22950 ft 402 kts 95°
2026-05-05 17:36 51.17841 1.22554 23373 ft 407 kts 95°
2026-05-05 17:36 51.17603 1.27062 23752 ft 410 kts 95°
2026-05-05 17:36 51.17360 1.31606 24179 ft 411 kts 95°
2026-05-05 17:36 51.17115 1.36163 24568 ft 414 kts 95°
2026-05-05 17:37 51.16868 1.40738 24964 ft 415 kts 95°
2026-05-05 17:37 51.16621 1.45325 25410 ft 416 kts 97°
2026-05-05 17:37 51.16371 1.49918 25848 ft 416 kts 97°
2026-05-05 17:37 51.16120 1.54517 26253 ft 417 kts 96°
2026-05-05 17:38 51.15868 1.59129 26640 ft 419 kts 95°
2026-05-05 17:38 51.15611 1.63760 27016 ft 421 kts 98°
2026-05-05 17:38 51.15349 1.68411 27386 ft 422 kts 96°
2026-05-05 17:38 51.15079 1.73083 27743 ft 424 kts 98°
2026-05-05 17:39 51.14804 1.77771 28118 ft 426 kts 97°
2026-05-05 17:39 51.14530 1.82483 28471 ft 428 kts 97°
2026-05-05 17:39 51.14255 1.87209 28831 ft 430 kts 98°
2026-05-05 17:39 51.13981 1.91956 29197 ft 432 kts 97°
2026-05-05 17:40 51.13704 1.96727 29565 ft 434 kts 97°
2026-05-05 17:40 51.13424 2.01513 29909 ft 435 kts 98°
2026-05-05 17:40 51.13139 2.06329 30221 ft 437 kts 97°
2026-05-05 17:40 51.12856 2.11107 30509 ft 439 kts 99°
2026-05-05 17:41 51.12565 2.15948 30912 ft 438 kts 97°
2026-05-05 17:41 51.12269 2.20760 31380 ft 436 kts 98°
2026-05-05 17:41 51.11972 2.25551 31838 ft 434 kts 98°
2026-05-05 17:41 51.11678 2.30325 32304 ft 432 kts 98°
2026-05-05 17:42 51.11386 2.35075 32751 ft 431 kts 98°
2026-05-05 17:42 51.11092 2.39818 32885 ft 429 kts 98°
2026-05-05 17:42 51.10799 2.44511 32913 ft 424 kts 98°
2026-05-05 17:43 51.10207 2.53800 32912 ft 421 kts 99°
2026-05-05 17:43 51.09603 2.63058 32908 ft 420 kts 100°
2026-05-05 17:44 51.08232 2.72028 32907 ft 417 kts 109°
2026-05-05 17:44 51.06625 2.80885 32906 ft 417 kts 109°
2026-05-05 17:45 51.05020 2.89740 32921 ft 417 kts 109°
2026-05-05 17:45 51.03409 2.98594 32922 ft 417 kts 109°
2026-05-05 17:46 51.01800 3.07369 32913 ft 417 kts 109°
2026-05-05 17:46 51.00167 3.16195 32908 ft 416 kts 109°
2026-05-05 17:47 50.98531 3.25007 32896 ft 416 kts 109°
2026-05-05 17:47 50.96892 3.33814 32883 ft 416 kts 109°
2026-05-05 17:48 50.95245 3.42621 32884 ft 416 kts 109°
2026-05-05 17:48 50.93592 3.51407 32884 ft 416 kts 109°
2026-05-05 17:49 50.91927 3.60192 32885 ft 416 kts 109°
2026-05-05 17:49 50.90255 3.68960 32878 ft 416 kts 110°
2026-05-05 17:50 50.88569 3.77720 32865 ft 416 kts 110°
2026-05-05 17:50 50.86869 3.86476 32862 ft 416 kts 110°
2026-05-05 17:51 50.85164 3.95235 32868 ft 417 kts 110°
2026-05-05 17:51 50.83455 4.04001 32873 ft 417 kts 110°
2026-05-05 17:52 50.81739 4.12760 32887 ft 417 kts 110°
2026-05-05 17:52 50.80012 4.21517 32887 ft 417 kts 110°
2026-05-05 17:53 50.78296 4.30186 32901 ft 416 kts 110°
2026-05-05 17:53 50.76562 4.38888 32907 ft 415 kts 110°
2026-05-05 17:54 50.74824 4.47567 32905 ft 414 kts 110°
2026-05-05 17:54 50.73082 4.56225 32901 ft 413 kts 110°
2026-05-05 17:55 50.71354 4.64877 32898 ft 413 kts 110°
2026-05-05 17:55 50.69680 4.73548 32879 ft 413 kts 110°
2026-05-05 17:56 50.68014 4.82211 32877 ft 412 kts 110°
2026-05-05 17:56 50.66331 4.90843 32874 ft 412 kts 110°
2026-05-05 17:57 50.64602 4.99443 32871 ft 411 kts 111°
2026-05-05 17:57 50.62841 5.07945 32870 ft 411 kts 111°
2026-05-05 17:58 50.61066 5.16505 32845 ft 411 kts 111°
2026-05-05 17:58 50.60181 5.20786 32677 ft 409 kts 111°
2026-05-05 17:58 50.59311 5.24993 32419 ft 400 kts 111°
2026-05-05 17:58 50.58453 5.29118 32033 ft 394 kts 111°
2026-05-05 17:59 50.57598 5.33199 31605 ft 391 kts 111°
2026-05-05 17:59 50.56748 5.37248 31149 ft 388 kts 111°
2026-05-05 17:59 50.55908 5.41260 30701 ft 385 kts 110°
2026-05-05 17:59 50.55071 5.45249 30260 ft 383 kts 110°
2026-05-05 18:00 50.54239 5.49207 29825 ft 380 kts 110°
2026-05-05 18:00 50.53689 5.51816 29515 ft 378 kts 110°
2026-05-05 18:00 50.52680 5.57096 28906 ft 377 kts 102°
2026-05-05 18:00 50.52477 5.59808 28613 ft 377 kts 94°
2026-05-05 18:01 50.52655 5.63911 28185 ft 378 kts 82°
2026-05-05 18:01 50.53405 5.67867 27734 ft 379 kts 69°
2026-05-05 18:01 50.54608 5.71557 27308 ft 379 kts 64°
2026-05-05 18:01 50.55855 5.75208 26891 ft 378 kts 64°
2026-05-05 18:02 50.57088 5.78840 26463 ft 376 kts 64°
2026-05-05 18:02 50.58316 5.82464 26054 ft 374 kts 64°
2026-05-05 18:02 50.59534 5.86068 25643 ft 372 kts 64°
2026-05-05 18:02 50.60744 5.89656 25230 ft 370 kts 64°
2026-05-05 18:03 50.61944 5.93222 24731 ft 366 kts 64°
2026-05-05 18:03 50.63129 5.96748 24037 ft 363 kts 64°
2026-05-05 18:03 50.64308 6.00259 23105 ft 368 kts 64°
2026-05-05 18:03 50.65515 6.03859 22592 ft 368 kts 64°
2026-05-05 18:04 50.66696 6.07387 22255 ft 362 kts 64°
2026-05-05 18:04 50.67869 6.10888 21809 ft 360 kts 64°
2026-05-05 18:04 50.69034 6.14371 21350 ft 359 kts 64°
2026-05-05 18:04 50.70195 6.17848 20909 ft 357 kts 64°
2026-05-05 18:05 50.71354 6.21307 20470 ft 356 kts 64°
2026-05-05 18:05 50.72464 6.24786 20017 ft 354 kts 69°
2026-05-05 18:05 50.73389 6.28377 19557 ft 353 kts 70°
2026-05-05 18:05 50.74307 6.31976 19104 ft 353 kts 70°
2026-05-05 18:06 50.75217 6.35566 18650 ft 352 kts 70°
2026-05-05 18:06 50.75817 6.37943 18343 ft 352 kts 70°
2026-05-05 18:06 50.77012 6.42696 17690 ft 351 kts 70°
2026-05-05 18:06 50.77908 6.46262 17234 ft 348 kts 70°
2026-05-05 18:07 50.78798 6.49809 16766 ft 346 kts 70°
2026-05-05 18:07 50.79683 6.53330 16323 ft 344 kts 70°
2026-05-05 18:07 50.80567 6.56842 15889 ft 343 kts 69°
2026-05-05 18:07 50.81732 6.60112 15441 ft 343 kts 53°
2026-05-05 18:08 50.83477 6.62677 14987 ft 344 kts 34°
2026-05-05 18:08 50.85650 6.64263 14540 ft 345 kts 15°
2026-05-05 18:08 50.88009 6.64896 14087 ft 345 kts
2026-05-05 18:08 50.90391 6.65397 13630 ft 344 kts
2026-05-05 18:09 50.92759 6.65897 13149 ft 343 kts
2026-05-05 18:09 50.95117 6.66397 12714 ft 340 kts
2026-05-05 18:09 50.97455 6.66898 12279 ft 338 kts
2026-05-05 18:09 50.99791 6.67403 11833 ft 337 kts
2026-05-05 18:10 51.02101 6.67864 11462 ft 334 kts
2026-05-05 18:10 51.04410 6.67792 11053 ft 330 kts 357°
2026-05-05 18:10 51.06610 6.67617 10850 ft 312 kts 357°
2026-05-05 18:10 51.08750 6.67440 10375 ft 305 kts 357°
2026-05-05 18:11 51.10845 6.67536 9868 ft 299 kts
2026-05-05 18:11 51.12847 6.68293 9290 ft 294 kts 16°
2026-05-05 18:11 51.14805 6.69184 8810 ft 293 kts 16°
2026-05-05 18:11 51.16748 6.70072 8434 ft 289 kts 16°
2026-05-05 18:12 51.18680 6.70955 7883 ft 285 kts 16°
2026-05-05 18:12 51.20586 6.71696 7416 ft 278 kts
2026-05-05 18:12 51.22478 6.71414 6975 ft 272 kts 341°
2026-05-05 18:12 51.24116 6.70018 6530 ft 266 kts 319°
2026-05-05 18:13 51.25274 6.67781 6080 ft 260 kts 297°
2026-05-05 18:13 51.25823 6.65077 5640 ft 256 kts 276°
2026-05-05 18:13 51.25720 6.62285 5215 ft 251 kts 255°
2026-05-05 18:13 51.25200 6.59635 4794 ft 250 kts 252°
2026-05-05 18:14 51.24669 6.56988 4473 ft 253 kts 253°
2026-05-05 18:14 51.24130 6.54286 4129 ft 256 kts 253°
2026-05-05 18:14 51.23602 6.51639 4055 ft 246 kts 253°
2026-05-05 18:14 51.23095 6.49089 3931 ft 237 kts 253°
2026-05-05 18:15 51.22351 6.46848 3881 ft 224 kts 227°
2026-05-05 18:15 51.21111 6.45498 3814 ft 212 kts 197°
2026-05-05 18:15 51.19679 6.45225 3763 ft 207 kts 171°
2026-05-05 18:15 51.18360 6.46016 3709 ft 203 kts 141°
2026-05-05 18:16 51.17491 6.47625 3671 ft 183 kts 113°
2026-05-05 18:16 51.17189 6.49477 3613 ft 166 kts 89°
2026-05-05 18:16 51.17315 6.51205 3566 ft 151 kts 78°
2026-05-05 18:16 51.17527 6.52809 3541 ft 148 kts 70°
2026-05-05 18:17 51.18020 6.54224 3421 ft 145 kts 54°
2026-05-05 18:17 51.18597 6.55547 3269 ft 146 kts 53°
2026-05-05 18:17 51.19195 6.56848 3077 ft 145 kts 52°
2026-05-05 18:17 51.19793 6.58120 2883 ft 142 kts 52°
2026-05-05 18:18 51.20402 6.59399 2695 ft 142 kts 51°
2026-05-05 18:18 51.21003 6.60651 2512 ft 141 kts 51°
2026-05-05 18:18 51.21584 6.61836 2404 ft 137 kts 52°
2026-05-05 18:18 51.22161 6.63033 2246 ft 135 kts 51°
2026-05-05 18:19 51.22729 6.64224 2145 ft 135 kts 52°
2026-05-05 18:19 51.23290 6.65422 1922 ft 134 kts 52°
2026-05-05 18:19 51.23829 6.66626 1659 ft 133 kts 52°
2026-05-05 18:19 51.24375 6.67803 1435 ft 133 kts 51°
2026-05-05 18:20 51.24940 6.68970 1209 ft 133 kts 50°
2026-05-05 18:20 51.25508 6.70136 994 ft 133 kts 50°
2026-05-05 18:20 51.26084 6.71314 786 ft 137 kts 48°
2026-05-05 18:20 51.26664 6.72509 605 ft 135 kts 51°
2026-05-05 18:21 51.27231 6.73690 451 ft 133 kts 47°
2026-05-05 18:21 51.27797 6.74869 264 ft 134 kts 49°
2026-05-05 18:21 51.28357 6.76045 138 ft 129 kts 49°
2026-05-05 18:21 51.28791 6.76944 135 ft 78 kts 53°
2026-05-05 18:22 51.29016 6.77402 131 ft 18 kts 57°
2026-05-05 18:22 51.28997 6.77573 135 ft 16 kts 132°
2026-05-05 18:22 51.28954 6.77627 136 ft 0 kts 143°
2026-05-05 18:24 51.28944 6.77637 136 ft 6 kts 150°
2026-05-05 18:25 51.28878 6.77591 136 ft 17 kts 230°
2026-05-05 18:25 51.28822 6.77473 136 ft 21 kts 233°
2026-05-05 18:25 51.28695 6.77209 137 ft 24 kts 233°
2026-05-05 18:25 51.28589 6.76983 137 ft 27 kts 232°
2026-05-05 18:26 51.28476 6.76747 137 ft 26 kts 233°
2026-05-05 18:26 51.28364 6.76516 137 ft 26 kts 233°
2026-05-05 18:26 51.28254 6.76276 137 ft 27 kts 234°
2026-05-05 18:26 51.28152 6.76070 137 ft 19 kts 231°
2026-05-05 18:27 51.28080 6.75918 137 ft 18 kts 233°
2026-05-05 18:27 51.28029 6.75828 137 ft 1 kts 210°
2026-05-05 18:27 51.27996 6.75822 137 ft 10 kts 181°
2026-05-05 18:27 51.27961 6.75812 137 ft 3 kts 172°
2026-05-05 18:28 51.27954 6.75896 137 ft 6 kts 90°
2026-05-05 18:28 51.27954 6.75925 137 ft 1 kts 92°
2026-05-05 18:28 51.27954 6.75934 137 ft 0 kts 92°